Time,TemperatureF,DewpointF,PressureIn,WindDirection,WindDirectionDegrees,WindSpeedMPH,WindSpeedGustMPH,Humidity,HourlyPrecipIn,Conditions,Clouds,dailyrainin,SoftwareType,DateUTC
2013-09-16 00:01:00,51.5,44.8,30.24,NE,45,3.6,3.6,78,0.00,,,0.00,WUHU216HW,2013-09-16 05:01:00,
2013-09-16 00:06:00,51.3,44.4,30.23,NE,45,2.0,3.6,77,0.00,,,0.00,WUHU216HW,2013-09-16 05:06:00,
2013-09-16 00:11:00,51.1,44.2,30.24,NE,45,2.0,3.4,77,0.00,,,0.00,WUHU216HW,2013-09-16 05:11:00,
2013-09-16 00:16:00,50.8,43.8,30.24,NE,45,2.0,2.9,77,0.00,,,0.00,WUHU216HW,2013-09-16 05:16:00,
2013-09-16 00:21:00,50.8,44.1,30.23,NNE,23,2.2,2.9,78,0.00,,,0.00,WUHU216HW,2013-09-16 05:21:00,
2013-09-16 00:26:00,50.6,43.9,30.24,NE,45,2.2,2.5,78,0.00,,,0.00,WUHU216HW,2013-09-16 05:26:00,
2013-09-16 00:31:00,50.4,43.7,30.24,NNE,23,1.8,2.5,78,0.00,,,0.00,WUHU216HW,2013-09-16 05:31:00,
2013-09-16 00:36:00,50.2,43.6,30.24,NNE,23,2.9,2.9,78,0.00,,,0.00,WUHU216HW,2013-09-16 05:36:00,
2013-09-16 00:41:00,50.0,43.7,30.24,NNE,23,2.0,3.4,79,0.00,,,0.00,WUHU216HW,2013-09-16 05:41:00,
2013-09-16 00:46:00,50.0,44.1,30.24,NNE,23,2.2,3.4,80,0.00,,,0.00,WUHU216HW,2013-09-16 05:46:00,
2013-09-16 00:51:00,50.0,44.4,30.24,NE,45,2.5,3.4,81,0.00,,,0.00,WUHU216HW,2013-09-16 05:51:00,
2013-09-16 00:56:00,49.9,43.9,30.24,NNE,23,2.5,2.9,80,0.00,,,0.00,WUHU216HW,2013-09-16 05:56:00,
2013-09-16 01:01:00,49.7,44.4,30.24,NNE,23,2.2,3.4,82,0.00,,,0.00,WUHU216HW,2013-09-16 06:01:00,
2013-09-16 01:06:00,49.7,44.4,30.24,NE,45,1.6,3.4,82,0.00,,,0.00,WUHU216HW,2013-09-16 06:06:00,
2013-09-16 01:11:00,49.5,44.2,30.24,NNE,23,2.5,3.1,82,0.00,,,0.00,WUHU216HW,2013-09-16 06:11:00,
2013-09-16 01:16:00,49.3,43.7,30.25,NNE,23,3.1,3.1,81,0.00,,,0.00,WUHU216HW,2013-09-16 06:16:00,
2013-09-16 01:21:00,49.3,44.0,30.25,NNE,23,2.0,3.1,82,0.00,,,0.00,WUHU216HW,2013-09-16 06:21:00,
2013-09-16 01:26:00,49.1,43.5,30.25,NNE,23,2.0,2.9,81,0.00,,,0.00,WUHU216HW,2013-09-16 06:26:00,
2013-09-16 01:31:00,49.1,43.8,30.25,NE,45,3.4,3.6,82,0.00,,,0.00,WUHU216HW,2013-09-16 06:31:00,
2013-09-16 01:36:00,49.0,43.7,30.25,NE,45,3.8,4.7,82,0.00,,,0.00,WUHU216HW,2013-09-16 06:36:00,
2013-09-16 01:41:00,49.0,43.7,30.25,NNE,23,2.5,4.7,82,0.00,,,0.00,WUHU216HW,2013-09-16 06:41:00,
2013-09-16 01:46:00,49.0,43.7,30.25,NE,45,4.7,4.7,82,0.00,,,0.00,WUHU216HW,2013-09-16 06:46:00,
2013-09-16 01:51:00,49.0,43.7,30.25,NE,45,4.7,4.7,82,0.00,,,0.00,WUHU216HW,2013-09-16 06:51:00,
2013-09-16 01:56:00,49.0,43.7,30.25,NNE,23,5.1,5.1,82,0.00,,,0.00,WUHU216HW,2013-09-16 06:56:00,
2013-09-16 02:01:00,48.8,43.5,30.25,NNE,23,4.0,5.4,82,0.00,,,0.00,WUHU216HW,2013-09-16 07:01:00,
2013-09-16 02:06:00,48.8,43.2,30.25,North,0,4.9,6.0,81,0.00,,,0.00,WUHU216HW,2013-09-16 07:06:00,
2013-09-16 02:11:00,48.8,43.5,30.25,NNE,23,4.7,6.0,82,0.00,,,0.00,WUHU216HW,2013-09-16 07:11:00,
2013-09-16 02:16:00,48.6,43.0,30.25,North,0,2.0,5.6,81,0.00,,,0.00,WUHU216HW,2013-09-16 07:16:00,
2013-09-16 02:21:00,48.6,43.0,30.25,ENE,68,3.8,5.1,81,0.00,,,0.00,WUHU216HW,2013-09-16 07:21:00,
2013-09-16 02:26:00,48.4,42.9,30.25,ENE,68,3.4,5.1,81,0.00,,,0.00,WUHU216HW,2013-09-16 07:26:00,
2013-09-16 02:31:00,48.4,42.9,30.25,NNE,23,2.0,3.8,81,0.00,,,0.00,WUHU216HW,2013-09-16 07:31:00,
2013-09-16 02:36:00,48.2,42.7,30.25,NE,45,2.9,4.0,81,0.00,,,0.00,WUHU216HW,2013-09-16 07:36:00,
2013-09-16 02:41:00,48.1,42.5,30.25,NNE,23,2.2,4.0,81,0.00,,,0.00,WUHU216HW,2013-09-16 07:41:00,
2013-09-16 02:46:00,48.1,42.5,30.25,NNE,23,2.9,4.5,81,0.00,,,0.00,WUHU216HW,2013-09-16 07:46:00,
2013-09-16 02:51:00,47.9,42.3,30.25,NE,45,3.6,6.0,81,0.00,,,0.00,WUHU216HW,2013-09-16 07:51:00,
2013-09-16 02:56:00,47.9,42.3,30.25,NNE,23,2.2,6.0,81,0.00,,,0.00,WUHU216HW,2013-09-16 07:56:00,
2013-09-16 03:01:00,47.7,42.1,30.25,NE,45,2.2,4.0,81,0.00,,,0.00,WUHU216HW,2013-09-16 08:01:00,
2013-09-16 03:06:00,47.5,41.9,30.25,NE,45,4.7,4.7,81,0.00,,,0.00,WUHU216HW,2013-09-16 08:06:00,
2013-09-16 03:11:00,47.5,41.9,30.26,NE,45,3.8,4.7,81,0.00,,,0.00,WUHU216HW,2013-09-16 08:11:00,
2013-09-16 03:16:00,47.3,42.1,30.26,NE,45,4.3,4.3,82,0.00,,,0.00,WUHU216HW,2013-09-16 08:16:00,
2013-09-16 03:21:00,47.3,42.1,30.26,NNE,23,2.9,4.7,82,0.00,,,0.00,WUHU216HW,2013-09-16 08:21:00,
2013-09-16 03:26:00,47.2,41.7,30.26,NE,45,2.2,4.7,81,0.00,,,0.00,WUHU216HW,2013-09-16 08:26:00,
2013-09-16 03:31:00,47.2,41.9,30.26,NE,45,3.6,3.6,82,0.00,,,0.00,WUHU216HW,2013-09-16 08:31:00,
2013-09-16 03:36:00,47.0,41.8,30.26,NNE,23,4.7,4.7,82,0.00,,,0.00,WUHU216HW,2013-09-16 08:36:00,
2013-09-16 03:41:00,47.0,41.8,30.26,NE,45,2.9,4.9,82,0.00,,,0.00,WUHU216HW,2013-09-16 08:41:00,
2013-09-16 03:46:00,46.8,41.6,30.26,North,0,4.0,4.9,82,0.00,,,0.00,WUHU216HW,2013-09-16 08:46:00,
2013-09-16 03:51:00,46.8,42.0,30.26,NNE,23,3.8,5.1,83,0.00,,,0.00,WUHU216HW,2013-09-16 08:51:00,
2013-09-16 03:56:00,46.8,42.0,30.26,NE,45,5.4,5.4,83,0.00,,,0.00,WUHU216HW,2013-09-16 08:56:00,
2013-09-16 04:01:00,46.8,42.0,30.26,NNE,23,3.4,5.4,83,0.00,,,0.00,WUHU216HW,2013-09-16 09:01:00,
2013-09-16 04:06:00,46.6,41.8,30.26,NE,45,3.4,4.7,83,0.00,,,0.00,WUHU216HW,2013-09-16 09:06:00,
2013-09-16 04:11:00,46.4,41.6,30.26,NNE,23,3.4,4.7,83,0.00,,,0.00,WUHU216HW,2013-09-16 09:11:00,
2013-09-16 04:16:00,46.4,41.6,30.26,NNE,23,2.7,4.7,83,0.00,,,0.00,WUHU216HW,2013-09-16 09:16:00,
2013-09-16 04:21:00,46.3,41.8,30.26,NE,45,3.1,4.7,84,0.00,,,0.00,WUHU216HW,2013-09-16 09:21:00,
2013-09-16 04:26:00,46.3,41.8,30.26,NNE,23,4.3,4.9,84,0.00,,,0.00,WUHU216HW,2013-09-16 09:26:00,
2013-09-16 04:31:00,46.1,41.2,30.27,NNE,23,3.4,4.9,83,0.00,,,0.00,WUHU216HW,2013-09-16 09:31:00,
2013-09-16 04:36:00,46.1,41.9,30.27,NNE,23,3.6,4.5,85,0.00,,,0.00,WUHU216HW,2013-09-16 09:36:00,
2013-09-16 04:42:00,46.1,41.6,30.27,NNE,23,2.5,4.0,84,0.00,,,0.00,WUHU216HW,2013-09-16 09:42:00,
2013-09-16 04:47:00,46.1,41.2,30.27,NE,45,3.4,4.3,83,0.00,,,0.00,WUHU216HW,2013-09-16 09:47:00,
2013-09-16 04:52:00,45.9,41.4,30.27,NE,45,3.4,4.3,84,0.00,,,0.00,WUHU216HW,2013-09-16 09:52:00,
2013-09-16 04:57:00,45.7,41.2,30.27,NNE,23,4.0,4.3,84,0.00,,,0.00,WUHU216HW,2013-09-16 09:57:00,
2013-09-16 05:02:00,45.7,40.9,30.27,NNE,23,2.9,4.0,83,0.00,,,0.00,WUHU216HW,2013-09-16 10:02:00,
2013-09-16 05:06:00,45.7,40.9,30.27,NE,45,5.4,5.4,83,0.00,,,0.00,WUHU216HW,2013-09-16 10:06:00,
2013-09-16 05:12:00,45.5,41.3,30.27,NNE,23,3.8,5.4,85,0.00,,,0.00,WUHU216HW,2013-09-16 10:12:00,
2013-09-16 05:17:00,45.5,41.3,30.27,NE,45,5.1,5.1,85,0.00,,,0.00,WUHU216HW,2013-09-16 10:17:00,
2013-09-16 05:22:00,45.5,41.3,30.27,North,0,3.4,5.1,85,0.00,,,0.00,WUHU216HW,2013-09-16 10:22:00,
2013-09-16 05:27:00,45.4,41.1,30.28,NNE,23,3.4,4.7,85,0.00,,,0.00,WUHU216HW,2013-09-16 10:27:00,
2013-09-16 05:32:00,45.4,41.1,30.28,NE,45,3.6,4.7,85,0.00,,,0.00,WUHU216HW,2013-09-16 10:32:00,
2013-09-16 05:37:00,45.2,41.0,30.28,North,0,3.4,4.3,85,0.00,,,0.00,WUHU216HW,2013-09-16 10:37:00,
2013-09-16 05:42:00,45.0,40.5,30.28,North,0,2.7,4.7,84,0.00,,,0.00,WUHU216HW,2013-09-16 10:42:00,
2013-09-16 05:47:00,44.8,40.3,30.28,NNE,23,1.8,4.7,84,0.00,,,0.00,WUHU216HW,2013-09-16 10:47:00,
2013-09-16 05:52:00,44.8,40.6,30.28,NE,45,2.5,3.6,85,0.00,,,0.00,WUHU216HW,2013-09-16 10:52:00,
2013-09-16 05:57:00,44.6,40.4,30.28,NNE,23,2.9,3.6,85,0.00,,,0.00,WUHU216HW,2013-09-16 10:57:00,
2013-09-16 06:02:00,44.6,40.4,30.28,NNE,23,2.5,3.6,85,0.00,,,0.00,WUHU216HW,2013-09-16 11:02:00,
2013-09-16 06:07:00,44.5,40.2,30.28,NNE,23,2.0,4.0,85,0.00,,,0.00,WUHU216HW,2013-09-16 11:07:00,
2013-09-16 06:12:00,44.3,40.1,30.28,NE,45,3.4,4.0,85,0.00,,,0.00,WUHU216HW,2013-09-16 11:12:00,
2013-09-16 06:17:00,44.3,40.1,30.28,NE,45,3.8,3.8,85,0.00,,,0.00,WUHU216HW,2013-09-16 11:17:00,
2013-09-16 06:22:00,44.3,40.1,30.29,NNE,23,3.4,3.8,85,0.00,,,0.00,WUHU216HW,2013-09-16 11:22:00,
2013-09-16 06:27:00,44.1,40.1,30.29,NNE,23,3.6,3.8,86,0.00,,,0.00,WUHU216HW,2013-09-16 11:27:00,
2013-09-16 06:32:00,44.1,40.1,30.29,ENE,68,3.8,4.7,86,0.00,,,0.00,WUHU216HW,2013-09-16 11:32:00,
2013-09-16 06:37:00,44.1,40.1,30.29,NNE,23,2.5,4.7,86,0.00,,,0.00,WUHU216HW,2013-09-16 11:37:00,
2013-09-16 06:42:00,44.1,40.5,30.29,NE,45,2.0,4.7,87,0.00,,,0.00,WUHU216HW,2013-09-16 11:42:00,
2013-09-16 06:47:00,43.9,40.3,30.29,NNE,23,1.8,4.0,87,0.00,,,0.00,WUHU216HW,2013-09-16 11:47:00,
2013-09-16 06:52:00,43.7,39.8,30.29,NE,45,3.4,3.8,86,0.00,,,0.00,WUHU216HW,2013-09-16 11:52:00,
2013-09-16 06:57:00,43.7,39.8,30.30,ENE,68,2.5,4.0,86,0.00,,,0.00,WUHU216HW,2013-09-16 11:57:00,
2013-09-16 07:02:00,43.7,39.8,30.30,ENE,68,4.0,4.0,86,0.00,,,0.00,WUHU216HW,2013-09-16 12:02:00,
2013-09-16 07:07:00,43.7,39.8,30.30,NE,45,2.2,4.0,86,0.00,,,0.00,WUHU216HW,2013-09-16 12:07:00,
2013-09-16 07:12:00,43.7,40.2,30.30,NE,45,2.7,4.0,87,0.00,,,0.00,WUHU216HW,2013-09-16 12:12:00,
2013-09-16 07:17:00,43.7,40.2,30.30,North,0,2.9,4.0,87,0.00,,,0.00,WUHU216HW,2013-09-16 12:17:00,
2013-09-16 07:22:00,43.9,40.3,30.30,ENE,68,4.7,4.7,87,0.00,,,0.00,WUHU216HW,2013-09-16 12:22:00,
2013-09-16 07:27:00,43.9,40.3,30.30,NE,45,3.8,4.7,87,0.00,,,0.00,WUHU216HW,2013-09-16 12:27:00,
2013-09-16 07:31:00,44.1,40.5,30.30,NE,45,4.7,4.7,87,0.00,,,0.00,WUHU216HW,2013-09-16 12:31:00,
2013-09-16 07:36:00,44.3,40.7,30.30,ESE,113,2.7,4.7,87,0.00,,,0.00,WUHU216HW,2013-09-16 12:36:00,
2013-09-16 07:41:00,44.5,40.9,30.30,ENE,68,4.5,4.5,87,0.00,,,0.00,WUHU216HW,2013-09-16 12:41:00,
2013-09-16 07:46:00,44.6,41.1,30.30,ENE,68,5.6,5.6,87,0.00,,,0.00,WUHU216HW,2013-09-16 12:46:00,
2013-09-16 07:51:00,44.8,40.9,30.30,North,0,3.6,6.9,86,0.00,,,0.00,WUHU216HW,2013-09-16 12:51:00,
2013-09-16 07:56:00,45.2,41.2,30.30,ENE,68,3.4,6.9,86,0.00,,,0.00,WUHU216HW,2013-09-16 12:56:00,
2013-09-16 08:01:00,45.4,41.4,30.30,North,0,3.1,5.6,86,0.00,,,0.00,WUHU216HW,2013-09-16 13:01:00,
2013-09-16 08:06:00,45.7,41.8,30.30,NE,45,4.3,5.6,86,0.00,,,0.00,WUHU216HW,2013-09-16 13:06:00,
2013-09-16 08:11:00,46.1,41.9,30.30,NE,45,4.7,5.4,85,0.00,,,0.00,WUHU216HW,2013-09-16 13:11:00,
2013-09-16 08:16:00,46.4,42.2,30.30,NE,45,4.5,5.4,85,0.00,,,0.00,WUHU216HW,2013-09-16 13:16:00,
2013-09-16 08:21:00,49.0,43.4,30.30,East,90,4.9,5.4,81,0.00,,,0.00,WUHU216HW,2013-09-16 13:21:00,
2013-09-16 08:26:00,50.2,43.3,30.30,East,90,6.9,7.2,77,0.00,,,0.00,WUHU216HW,2013-09-16 13:26:00,
2013-09-16 08:31:00,50.8,42.8,30.30,ESE,113,7.8,8.5,74,0.00,,,0.00,WUHU216HW,2013-09-16 13:31:00,
2013-09-16 08:36:00,50.8,43.1,30.30,ESE,113,5.4,8.5,75,0.00,,,0.00,WUHU216HW,2013-09-16 13:36:00,
2013-09-16 08:41:00,51.7,43.3,30.30,ENE,68,2.5,7.6,73,0.00,,,0.00,WUHU216HW,2013-09-16 13:41:00,
2013-09-16 08:46:00,52.4,43.3,30.30,ESE,113,7.6,9.4,71,0.00,,,0.00,WUHU216HW,2013-09-16 13:46:00,
2013-09-16 08:51:00,52.7,43.7,30.30,ESE,113,4.0,9.4,71,0.00,,,0.00,WUHU216HW,2013-09-16 13:51:00,
2013-09-16 08:56:00,52.7,43.3,30.31,NE,45,6.3,8.3,70,0.00,,,0.00,WUHU216HW,2013-09-16 13:56:00,
2013-09-16 09:01:00,52.9,43.5,30.31,SE,135,11.2,11.2,70,0.00,,,0.00,WUHU216HW,2013-09-16 14:01:00,
2013-09-16 09:06:00,52.7,44.0,30.30,SE,135,7.6,11.2,72,0.00,,,0.00,WUHU216HW,2013-09-16 14:06:00,
2013-09-16 09:11:00,52.6,43.5,30.31,ESE,113,7.8,8.9,71,0.00,,,0.00,WUHU216HW,2013-09-16 14:11:00,
2013-09-16 09:16:00,53.1,44.0,30.30,East,90,6.7,8.9,71,0.00,,,0.00,WUHU216HW,2013-09-16 14:16:00,
2013-09-16 09:21:00,53.6,43.8,30.31,SE,135,8.7,8.7,69,0.00,,,0.00,WUHU216HW,2013-09-16 14:21:00,
2013-09-16 09:26:00,52.9,43.0,30.31,SE,135,9.2,9.2,69,0.00,,,0.00,WUHU216HW,2013-09-16 14:26:00,
2013-09-16 09:31:00,52.9,43.5,30.31,ESE,113,11.4,12.1,70,0.00,,,0.00,WUHU216HW,2013-09-16 14:31:00,
2013-09-16 09:36:00,53.5,43.9,30.31,ESE,113,4.9,12.1,70,0.00,,,0.00,WUHU216HW,2013-09-16 14:36:00,
2013-09-16 09:41:00,54.5,44.2,30.31,ESE,113,5.4,10.1,68,0.00,,,0.00,WUHU216HW,2013-09-16 14:41:00,
2013-09-16 09:46:00,54.4,44.0,30.31,SE,135,8.3,10.1,68,0.00,,,0.00,WUHU216HW,2013-09-16 14:46:00,
2013-09-16 09:51:00,53.8,44.3,30.31,SE,135,13.0,13.0,70,0.00,,,0.00,WUHU216HW,2013-09-16 14:51:00,
2013-09-16 09:56:00,54.7,43.9,30.31,SSE,158,9.2,13.0,67,0.00,,,0.00,WUHU216HW,2013-09-16 14:56:00,
2013-09-16 10:01:00,55.1,44.3,30.31,ESE,113,6.3,11.0,67,0.00,,,0.00,WUHU216HW,2013-09-16 15:01:00,
2013-09-16 10:06:00,55.1,43.5,30.31,SE,135,8.7,11.0,65,0.00,,,0.00,WUHU216HW,2013-09-16 15:06:00,
2013-09-16 10:11:00,55.1,43.5,30.31,ESE,113,6.5,11.6,65,0.00,,,0.00,WUHU216HW,2013-09-16 15:11:00,
2013-09-16 10:16:00,55.8,44.2,30.31,ESE,113,5.4,11.6,65,0.00,,,0.00,WUHU216HW,2013-09-16 15:16:00,
2013-09-16 10:21:00,56.2,44.1,30.31,East,90,5.4,8.5,64,0.00,,,0.00,WUHU216HW,2013-09-16 15:21:00,
2013-09-16 10:26:00,56.7,44.2,30.31,ESE,113,6.3,8.3,63,0.00,,,0.00,WUHU216HW,2013-09-16 15:26:00,
2013-09-16 10:31:00,56.5,44.5,30.31,South,180,11.6,11.6,64,0.00,,,0.00,WUHU216HW,2013-09-16 15:31:00,
2013-09-16 10:36:00,57.1,44.6,30.31,SSE,158,11.4,13.2,63,0.00,,,0.00,WUHU216HW,2013-09-16 15:36:00,
2013-09-16 10:41:00,56.9,44.4,30.31,SE,135,7.4,13.2,63,0.00,,,0.00,WUHU216HW,2013-09-16 15:41:00,
2013-09-16 10:46:00,56.7,44.2,30.31,SE,135,11.2,11.2,63,0.00,,,0.00,WUHU216HW,2013-09-16 15:46:00,
2013-09-16 10:51:00,56.9,44.4,30.31,SE,135,7.8,11.2,63,0.00,,,0.00,WUHU216HW,2013-09-16 15:51:00,
2013-09-16 10:56:00,56.9,43.6,30.31,SSE,158,10.7,10.7,61,0.00,,,0.00,WUHU216HW,2013-09-16 15:56:00,
2013-09-16 11:01:00,57.2,44.7,30.31,SE,135,6.9,10.7,63,0.00,,,0.00,WUHU216HW,2013-09-16 16:01:00,
2013-09-16 11:06:00,57.6,44.3,30.31,East,90,4.7,10.7,61,0.00,,,0.00,WUHU216HW,2013-09-16 16:06:00,
2013-09-16 11:11:00,58.9,44.6,30.31,South,180,8.3,11.2,59,0.00,,,0.00,WUHU216HW,2013-09-16 16:11:00,
2013-09-16 11:16:00,58.7,44.4,30.31,SE,135,7.4,11.2,59,0.00,,,0.00,WUHU216HW,2013-09-16 16:16:00,
2013-09-16 11:21:00,59.4,45.1,30.31,SE,135,4.9,10.3,59,0.00,,,0.00,WUHU216HW,2013-09-16 16:21:00,
2013-09-16 11:26:00,60.1,45.3,30.31,ESE,113,4.3,7.8,58,0.00,,,0.00,WUHU216HW,2013-09-16 16:26:00,
2013-09-16 11:31:00,60.5,45.6,30.31,SE,135,4.3,9.4,58,0.00,,,0.00,WUHU216HW,2013-09-16 16:31:00,
2013-09-16 11:36:00,60.7,45.4,30.31,SE,135,10.5,10.5,57,0.00,,,0.00,WUHU216HW,2013-09-16 16:36:00,
2013-09-16 11:41:00,59.9,44.6,30.31,SSE,158,8.5,10.5,57,0.00,,,0.00,WUHU216HW,2013-09-16 16:41:00,
2013-09-16 11:46:00,59.9,45.1,30.31,SSE,158,12.1,12.1,58,0.00,,,0.00,WUHU216HW,2013-09-16 16:46:00,
2013-09-16 11:51:00,59.9,46.1,30.31,SE,135,7.4,12.1,60,0.00,,,0.00,WUHU216HW,2013-09-16 16:51:00,
2013-09-16 11:56:00,60.5,45.6,30.31,NNE,23,3.1,11.4,58,0.00,,,0.00,WUHU216HW,2013-09-16 16:56:00,
2013-09-16 12:01:00,62.6,45.7,30.31,SE,135,7.8,8.9,54,0.00,,,0.00,WUHU216HW,2013-09-16 17:01:00,
2013-09-16 12:06:00,61.6,44.7,30.30,SE,135,10.3,12.3,54,0.00,,,0.00,WUHU216HW,2013-09-16 17:06:00,
2013-09-16 12:11:00,61.4,45.6,30.30,SSE,158,7.6,12.3,56,0.00,,,0.00,WUHU216HW,2013-09-16 17:11:00,
2013-09-16 12:16:00,62.3,45.4,30.30,SSE,158,12.3,12.3,54,0.00,,,0.00,WUHU216HW,2013-09-16 17:16:00,
2013-09-16 12:21:00,61.7,45.8,30.30,SE,135,7.6,12.3,56,0.00,,,0.00,WUHU216HW,2013-09-16 17:21:00,
2013-09-16 12:26:00,61.9,45.6,30.29,SE,135,8.1,11.0,55,0.00,,,0.00,WUHU216HW,2013-09-16 17:26:00,
2013-09-16 12:31:00,61.9,44.6,30.29,SSE,158,6.0,10.5,53,0.00,,,0.00,WUHU216HW,2013-09-16 17:31:00,
2013-09-16 12:36:00,61.6,45.2,30.29,SSE,158,6.7,12.3,55,0.00,,,0.00,WUHU216HW,2013-09-16 17:36:00,
2013-09-16 12:41:00,62.6,46.2,30.29,SSE,158,8.5,12.3,55,0.00,,,0.00,WUHU216HW,2013-09-16 17:41:00,
2013-09-16 12:46:00,63.4,44.4,30.29,SE,135,7.4,9.2,50,0.00,,,0.00,WUHU216HW,2013-09-16 17:46:00,
2013-09-16 12:51:00,64.1,44.5,30.29,SE,135,8.9,8.9,49,0.00,,,0.00,WUHU216HW,2013-09-16 17:51:00,
2013-09-16 12:56:00,64.1,45.6,30.29,SSE,158,7.2,9.2,51,0.00,,,0.00,WUHU216HW,2013-09-16 17:56:00,
2013-09-16 13:01:00,64.6,45.5,30.29,East,90,4.7,9.2,50,0.00,,,0.00,WUHU216HW,2013-09-16 18:01:00,
2013-09-16 13:06:00,66.8,45.9,30.29,ESE,113,8.9,9.2,47,0.00,,,0.00,WUHU216HW,2013-09-16 18:06:00,
2013-09-16 13:11:00,66.1,45.8,30.29,NE,45,5.4,10.3,48,0.00,,,0.00,WUHU216HW,2013-09-16 18:11:00,
2013-09-16 13:16:00,66.8,45.9,30.29,East,90,4.0,10.3,47,0.00,,,0.00,WUHU216HW,2013-09-16 18:16:00,
2013-09-16 13:21:00,66.2,46.0,30.29,SSE,158,11.4,11.4,48,0.00,,,0.00,WUHU216HW,2013-09-16 18:21:00,
2013-09-16 13:26:00,64.8,44.6,30.28,SSE,158,9.8,12.1,48,0.00,,,0.00,WUHU216HW,2013-09-16 18:26:00,
2013-09-16 13:31:00,64.6,46.0,30.28,SE,135,1.8,12.1,51,0.00,,,0.00,WUHU216HW,2013-09-16 18:31:00,
2013-09-16 13:36:00,66.6,45.7,30.28,ENE,68,4.9,9.2,47,0.00,,,0.00,WUHU216HW,2013-09-16 18:36:00,
2013-09-16 13:41:00,67.5,45.4,30.28,ESE,113,5.4,7.4,45,0.00,,,0.00,WUHU216HW,2013-09-16 18:41:00,
2013-09-16 13:46:00,66.1,44.0,30.28,SSE,158,12.1,12.1,45,0.00,,,0.00,WUHU216HW,2013-09-16 18:46:00,
2013-09-16 13:51:00,65.3,44.5,30.28,ESE,113,5.4,12.1,47,0.00,,,0.00,WUHU216HW,2013-09-16 18:51:00,
2013-09-16 13:56:00,65.9,45.6,30.28,SE,135,4.3,10.5,48,0.00,,,0.00,WUHU216HW,2013-09-16 18:56:00,
2013-09-16 14:01:00,66.6,45.1,30.28,SE,135,4.7,10.5,46,0.00,,,0.00,WUHU216HW,2013-09-16 19:01:00,
2013-09-16 14:06:00,67.5,45.4,30.28,ESE,113,6.0,7.2,45,0.00,,,0.00,WUHU216HW,2013-09-16 19:06:00,
2013-09-16 14:11:00,68.6,45.7,30.27,ESE,113,3.6,6.9,44,0.00,,,0.00,WUHU216HW,2013-09-16 19:11:00,
2013-09-16 14:16:00,70.7,47.1,30.27,SE,135,6.9,6.9,43,0.00,,,0.00,WUHU216HW,2013-09-16 19:16:00,
2013-09-16 14:21:00,70.9,48.4,30.27,ENE,68,3.8,6.9,45,0.00,,,0.00,WUHU216HW,2013-09-16 19:21:00,
2013-09-16 14:26:00,68.0,44.7,30.26,SSE,158,2.2,11.6,43,0.00,,,0.00,WUHU216HW,2013-09-16 19:26:00,
2013-09-16 14:31:00,67.7,44.3,30.26,ESE,113,6.3,11.6,43,0.00,,,0.00,WUHU216HW,2013-09-16 19:31:00,
2013-09-16 14:36:00,68.0,44.0,30.26,SE,135,4.0,10.1,42,0.00,,,0.00,WUHU216HW,2013-09-16 19:36:00,
2013-09-16 14:41:00,68.8,45.3,30.26,SSE,158,3.6,12.5,43,0.00,,,0.00,WUHU216HW,2013-09-16 19:41:00,
2013-09-16 14:46:00,70.9,46.0,30.25,ESE,113,8.5,12.5,41,0.00,,,0.00,WUHU216HW,2013-09-16 19:46:00,
2013-09-16 14:51:00,69.7,46.1,30.25,SSE,158,6.7,8.9,43,0.00,,,0.00,WUHU216HW,2013-09-16 19:51:00,
2013-09-16 14:56:00,69.8,45.6,30.25,ENE,68,5.4,8.9,42,0.00,,,0.00,WUHU216HW,2013-09-16 19:56:00,
2013-09-16 15:01:00,69.7,45.5,30.25,ESE,113,9.6,9.6,42,0.00,,,0.00,WUHU216HW,2013-09-16 20:01:00,
2013-09-16 15:06:00,69.8,46.8,30.25,ENE,68,2.5,9.6,44,0.00,,,0.00,WUHU216HW,2013-09-16 20:06:00,
2013-09-16 15:11:00,69.7,45.5,30.25,SE,135,8.7,12.1,42,0.00,,,0.00,WUHU216HW,2013-09-16 20:11:00,
2013-09-16 15:16:00,69.1,45.6,30.24,SSE,158,7.6,12.1,43,0.00,,,0.00,WUHU216HW,2013-09-16 20:16:00,
2013-09-16 15:21:00,68.8,45.3,30.24,SSE,158,9.2,16.1,43,0.00,,,0.00,WUHU216HW,2013-09-16 20:21:00,
2013-09-16 15:26:00,69.1,45.6,30.24,NE,45,5.4,16.1,43,0.00,,,0.00,WUHU216HW,2013-09-16 20:26:00,
2013-09-16 15:31:00,69.5,45.9,30.24,ESE,113,6.7,11.2,43,0.00,,,0.00,WUHU216HW,2013-09-16 20:31:00,
2013-09-16 15:36:00,69.1,44.4,30.23,SE,135,10.3,10.3,41,0.00,,,0.00,WUHU216HW,2013-09-16 20:36:00,
2013-09-16 15:41:00,68.6,44.6,30.23,ESE,113,5.8,13.6,42,0.00,,,0.00,WUHU216HW,2013-09-16 20:41:00,
2013-09-16 15:46:00,69.5,45.4,30.23,ESE,113,10.5,13.6,42,0.00,,,0.00,WUHU216HW,2013-09-16 20:46:00,
2013-09-16 15:51:00,69.1,45.0,30.23,ESE,113,6.9,10.5,42,0.00,,,0.00,WUHU216HW,2013-09-16 20:51:00,
2013-09-16 15:56:00,68.8,45.3,30.23,SE,135,6.0,9.6,43,0.00,,,0.00,WUHU216HW,2013-09-16 20:56:00,
2013-09-16 16:01:00,69.7,44.9,30.22,East,90,10.1,10.1,41,0.00,,,0.00,WUHU216HW,2013-09-16 21:01:00,
2013-09-16 16:06:00,69.1,43.8,30.22,ESE,113,4.0,11.0,40,0.00,,,0.00,WUHU216HW,2013-09-16 21:06:00,
2013-09-16 16:11:00,70.2,44.0,30.21,SE,135,11.6,11.6,39,0.00,,,0.00,WUHU216HW,2013-09-16 21:11:00,
2013-09-16 16:16:00,70.6,44.4,30.21,SSE,158,9.2,11.6,39,0.00,,,0.00,WUHU216HW,2013-09-16 21:16:00,
2013-09-16 16:21:00,69.8,44.5,30.21,SE,135,8.9,11.0,40,0.00,,,0.00,WUHU216HW,2013-09-16 21:21:00,
2013-09-16 16:26:00,69.7,43.6,30.21,ESE,113,7.6,11.0,39,0.00,,,0.00,WUHU216HW,2013-09-16 21:26:00,
2013-09-16 16:31:00,69.3,43.2,30.21,ESE,113,13.2,13.2,39,0.00,,,0.00,WUHU216HW,2013-09-16 21:31:00,
2013-09-16 16:36:00,69.3,43.2,30.21,SSE,158,8.5,13.2,39,0.00,,,0.00,WUHU216HW,2013-09-16 21:36:00,
2013-09-16 16:41:00,69.8,43.8,30.21,SE,135,7.6,10.1,39,0.00,,,0.00,WUHU216HW,2013-09-16 21:41:00,
2013-09-16 16:46:00,69.1,43.1,30.20,SE,135,7.4,12.3,39,0.00,,,0.00,WUHU216HW,2013-09-16 21:46:00,
2013-09-16 16:51:00,69.3,42.5,30.20,ESE,113,7.4,12.3,38,0.00,,,0.00,WUHU216HW,2013-09-16 21:51:00,
2013-09-16 16:56:00,69.8,43.0,30.20,ESE,113,8.3,10.7,38,0.00,,,0.00,WUHU216HW,2013-09-16 21:56:00,
2013-09-16 17:01:00,69.3,43.2,30.20,ESE,113,6.5,10.7,39,0.00,,,0.00,WUHU216HW,2013-09-16 22:01:00,
2013-09-16 17:06:00,69.5,44.1,30.20,ESE,113,8.3,10.7,40,0.00,,,0.00,WUHU216HW,2013-09-16 22:06:00,
2013-09-16 17:11:00,69.5,43.4,30.20,SE,135,6.3,9.4,39,0.00,,,0.00,WUHU216HW,2013-09-16 22:11:00,
2013-09-16 17:16:00,69.8,43.0,30.20,SE,135,6.9,9.4,38,0.00,,,0.00,WUHU216HW,2013-09-16 22:16:00,
2013-09-16 17:21:00,69.3,43.2,30.19,SE,135,8.5,11.4,39,0.00,,,0.00,WUHU216HW,2013-09-16 22:21:00,
2013-09-16 17:26:00,68.9,42.9,30.19,SE,135,9.4,11.6,39,0.00,,,0.00,WUHU216HW,2013-09-16 22:26:00,
2013-09-16 17:31:00,69.1,43.8,30.19,SSE,158,8.7,11.6,40,0.00,,,0.00,WUHU216HW,2013-09-16 22:31:00,
2013-09-16 17:36:00,68.8,42.8,30.19,SE,135,8.1,11.6,39,0.00,,,0.00,WUHU216HW,2013-09-16 22:36:00,
2013-09-16 17:41:00,68.6,44.6,30.19,SSE,158,9.2,13.4,42,0.00,,,0.00,WUHU216HW,2013-09-16 22:41:00,
2013-09-16 17:46:00,68.8,42.8,30.19,SSE,158,10.3,13.4,39,0.00,,,0.00,WUHU216HW,2013-09-16 22:46:00,
2013-09-16 17:51:00,68.4,43.7,30.19,SE,135,9.8,11.9,41,0.00,,,0.00,WUHU216HW,2013-09-16 22:51:00,
2013-09-16 17:56:00,68.2,44.2,30.19,SSE,158,11.2,14.8,42,0.00,,,0.00,WUHU216HW,2013-09-16 22:56:00,
2013-09-16 18:01:00,68.0,43.5,30.19,SE,135,9.8,14.8,41,0.00,,,0.00,WUHU216HW,2013-09-16 23:01:00,
2013-09-16 18:06:00,68.2,43.6,30.19,SE,135,6.9,10.3,41,0.00,,,0.00,WUHU216HW,2013-09-16 23:06:00,
2013-09-16 18:11:00,68.0,44.0,30.19,ESE,113,7.2,9.8,42,0.00,,,0.00,WUHU216HW,2013-09-16 23:11:00,
2013-09-16 18:16:00,67.7,42.5,30.19,SE,135,9.2,12.1,40,0.00,,,0.00,WUHU216HW,2013-09-16 23:16:00,
2013-09-16 18:21:00,67.3,43.4,30.19,SE,135,11.6,12.1,42,0.00,,,0.00,WUHU216HW,2013-09-16 23:21:00,
2013-09-16 18:26:00,67.1,43.8,30.19,SE,135,10.5,11.6,43,0.00,,,0.00,WUHU216HW,2013-09-16 23:26:00,
2013-09-16 18:31:00,66.8,42.9,30.19,SE,135,9.8,10.5,42,0.00,,,0.00,WUHU216HW,2013-09-16 23:31:00,
2013-09-16 18:36:00,66.8,44.1,30.19,SE,135,7.4,10.1,44,0.00,,,0.00,WUHU216HW,2013-09-16 23:36:00,
2013-09-16 18:41:00,67.0,43.7,30.18,ESE,113,9.2,10.1,43,0.00,,,0.00,WUHU216HW,2013-09-16 23:41:00,
2013-09-16 18:46:00,66.4,43.7,30.18,ESE,113,6.7,9.2,44,0.00,,,0.00,WUHU216HW,2013-09-16 23:46:00,
2013-09-16 18:51:00,66.2,44.2,30.18,East,90,6.3,9.2,45,0.00,,,0.00,WUHU216HW,2013-09-16 23:51:00,
2013-09-16 18:56:00,66.1,44.0,30.18,ESE,113,5.6,8.5,45,0.00,,,0.00,WUHU216HW,2013-09-16 23:56:00,
2013-09-16 19:01:00,65.9,44.5,30.18,ESE,113,6.0,6.5,46,0.00,,,0.00,WUHU216HW,2013-09-17 00:01:00,
2013-09-16 19:06:00,65.3,43.9,30.18,ESE,113,5.4,6.0,46,0.00,,,0.00,WUHU216HW,2013-09-17 00:06:00,
2013-09-16 19:11:00,64.8,44.0,30.17,ESE,113,4.5,5.8,47,0.00,,,0.00,WUHU216HW,2013-09-17 00:11:00,
2013-09-16 19:16:00,64.1,44.5,30.17,ESE,113,4.3,5.8,49,0.00,,,0.00,WUHU216HW,2013-09-17 00:16:00,
2013-09-16 19:21:00,63.7,44.1,30.17,ESE,113,4.3,4.9,49,0.00,,,0.00,WUHU216HW,2013-09-17 00:21:00,
2013-09-16 19:26:00,63.2,43.7,30.17,ESE,113,5.4,5.4,49,0.00,,,0.00,WUHU216HW,2013-09-17 00:26:00,
2013-09-16 19:31:00,62.6,43.7,30.17,ESE,113,5.4,6.0,50,0.00,,,0.00,WUHU216HW,2013-09-17 00:31:00,
2013-09-16 19:36:00,61.9,43.6,30.17,ESE,113,4.7,6.0,51,0.00,,,0.00,WUHU216HW,2013-09-17 00:36:00,
2013-09-16 19:41:00,61.7,43.9,30.17,ESE,113,4.0,5.6,52,0.00,,,0.00,WUHU216HW,2013-09-17 00:41:00,
2013-09-16 19:46:00,61.6,43.7,30.17,ESE,113,4.0,5.8,52,0.00,,,0.00,WUHU216HW,2013-09-17 00:46:00,
2013-09-16 19:51:00,61.7,43.9,30.17,ESE,113,1.8,5.8,52,0.00,,,0.00,WUHU216HW,2013-09-17 00:51:00,
2013-09-16 19:56:00,61.7,43.4,30.17,East,90,2.7,5.4,51,0.00,,,0.00,WUHU216HW,2013-09-17 00:56:00,
2013-09-16 20:01:00,61.6,43.3,30.17,ESE,113,2.5,5.6,51,0.00,,,0.00,WUHU216HW,2013-09-17 01:01:00,
2013-09-16 20:06:00,61.2,42.9,30.17,ENE,68,6.5,6.5,51,0.00,,,0.00,WUHU216HW,2013-09-17 01:06:00,
2013-09-16 20:11:00,60.8,43.1,30.17,ENE,68,5.8,6.5,52,0.00,,,0.00,WUHU216HW,2013-09-17 01:11:00,
2013-09-16 20:16:00,60.5,43.2,30.18,ENE,68,6.0,6.0,53,0.00,,,0.00,WUHU216HW,2013-09-17 01:16:00,
2013-09-16 20:21:00,59.8,43.6,30.17,East,90,6.0,6.5,55,0.00,,,0.00,WUHU216HW,2013-09-17 01:21:00,
2013-09-16 20:26:00,59.2,43.9,30.17,ESE,113,5.1,6.5,57,0.00,,,0.00,WUHU216HW,2013-09-17 01:26:00,
2013-09-16 20:31:00,58.7,43.9,30.18,ESE,113,5.6,6.5,58,0.00,,,0.00,WUHU216HW,2013-09-17 01:31:00,
2013-09-16 20:36:00,58.3,43.6,30.18,East,90,5.8,6.0,58,0.00,,,0.00,WUHU216HW,2013-09-17 01:36:00,
2013-09-16 20:41:00,58.1,43.5,30.18,ESE,113,4.7,6.5,58,0.00,,,0.00,WUHU216HW,2013-09-17 01:41:00,
2013-09-16 20:46:00,58.1,43.5,30.18,East,90,5.4,6.7,58,0.00,,,0.00,WUHU216HW,2013-09-17 01:46:00,
2013-09-16 20:51:00,58.0,43.3,30.18,ESE,113,6.3,6.9,58,0.00,,,0.00,WUHU216HW,2013-09-17 01:51:00,
2013-09-16 20:56:00,57.8,43.1,30.18,ESE,113,6.9,6.9,58,0.00,,,0.00,WUHU216HW,2013-09-17 01:56:00,
2013-09-16 21:01:00,57.6,42.9,30.18,East,90,6.3,6.9,58,0.00,,,0.00,WUHU216HW,2013-09-17 02:01:00,
2013-09-16 21:06:00,57.6,42.9,30.18,ESE,113,6.9,6.9,58,0.00,,,0.00,WUHU216HW,2013-09-17 02:06:00,
2013-09-16 21:11:00,57.4,43.3,30.18,ESE,113,4.0,6.9,59,0.00,,,0.00,WUHU216HW,2013-09-17 02:11:00,
2013-09-16 21:16:00,57.1,43.4,30.18,ESE,113,6.7,6.7,60,0.00,,,0.00,WUHU216HW,2013-09-17 02:16:00,
2013-09-16 21:21:00,56.7,43.0,30.18,ESE,113,6.3,6.9,60,0.00,,,0.00,WUHU216HW,2013-09-17 02:21:00,
2013-09-16 21:26:00,56.3,43.0,30.17,ESE,113,6.9,6.9,61,0.00,,,0.00,WUHU216HW,2013-09-17 02:26:00,
2013-09-16 21:31:00,56.2,43.3,30.17,ESE,113,5.4,6.9,62,0.00,,,0.00,WUHU216HW,2013-09-17 02:31:00,
2013-09-16 21:36:00,55.8,42.9,30.17,ESE,113,6.3,6.3,62,0.00,,,0.00,WUHU216HW,2013-09-17 02:36:00,
2013-09-16 21:41:00,55.8,42.9,30.17,ESE,113,4.7,6.3,62,0.00,,,0.00,WUHU216HW,2013-09-17 02:41:00,
2013-09-16 21:46:00,55.4,42.6,30.17,ESE,113,5.4,6.0,62,0.00,,,0.00,WUHU216HW,2013-09-17 02:46:00,
2013-09-16 21:51:00,55.4,43.0,30.17,SE,135,4.0,6.0,63,0.00,,,0.00,WUHU216HW,2013-09-17 02:51:00,
2013-09-16 21:56:00,55.3,42.9,30.17,ESE,113,4.3,5.6,63,0.00,,,0.00,WUHU216HW,2013-09-17 02:56:00,
2013-09-16 22:01:00,55.3,42.9,30.17,ESE,113,5.6,5.6,63,0.00,,,0.00,WUHU216HW,2013-09-17 03:01:00,
2013-09-16 22:06:00,55.1,42.7,30.17,ESE,113,5.4,5.6,63,0.00,,,0.00,WUHU216HW,2013-09-17 03:06:00,
2013-09-16 22:11:00,55.1,42.7,30.17,ESE,113,6.3,6.9,63,0.00,,,0.00,WUHU216HW,2013-09-17 03:11:00,
2013-09-16 22:16:00,55.1,42.7,30.17,ESE,113,7.2,7.4,63,0.00,,,0.00,WUHU216HW,2013-09-17 03:16:00,
2013-09-16 22:21:00,55.1,42.7,30.17,SE,135,6.0,7.6,63,0.00,,,0.00,WUHU216HW,2013-09-17 03:21:00,
2013-09-16 22:26:00,55.1,43.1,30.17,SE,135,6.5,7.6,64,0.00,,,0.00,WUHU216HW,2013-09-17 03:26:00,
2013-09-16 22:31:00,55.1,43.1,30.17,SE,135,6.5,7.8,64,0.00,,,0.00,WUHU216HW,2013-09-17 03:31:00,
2013-09-16 22:36:00,54.7,42.8,30.17,ESE,113,6.9,7.8,64,0.00,,,0.00,WUHU216HW,2013-09-17 03:36:00,
2013-09-16 22:41:00,54.7,42.8,30.17,SE,135,6.7,7.8,64,0.00,,,0.00,WUHU216HW,2013-09-17 03:41:00,
2013-09-16 22:46:00,54.5,42.6,30.17,SE,135,7.4,8.5,64,0.00,,,0.00,WUHU216HW,2013-09-17 03:46:00,
2013-09-16 22:51:00,54.5,42.6,30.17,SE,135,7.4,8.5,64,0.00,,,0.00,WUHU216HW,2013-09-17 03:51:00,
2013-09-16 22:56:00,54.4,42.9,30.17,SE,135,6.7,8.1,65,0.00,,,0.00,WUHU216HW,2013-09-17 03:56:00,
2013-09-16 23:01:00,54.2,43.0,30.17,SE,135,7.4,7.4,66,0.00,,,0.00,WUHU216HW,2013-09-17 04:01:00,
2013-09-16 23:06:00,54.4,43.2,30.17,SE,135,6.3,7.6,66,0.00,,,0.00,WUHU216HW,2013-09-17 04:06:00,
2013-09-16 23:11:00,54.2,43.0,30.17,SE,135,6.7,8.3,66,0.00,,,0.00,WUHU216HW,2013-09-17 04:11:00,
2013-09-16 23:16:00,54.0,43.3,30.17,SSE,158,6.3,8.3,67,0.00,,,0.00,WUHU216HW,2013-09-17 04:16:00,
2013-09-16 23:21:00,54.0,43.3,30.17,SE,135,6.7,7.6,67,0.00,,,0.00,WUHU216HW,2013-09-17 04:21:00,
2013-09-16 23:26:00,53.8,43.1,30.17,SSE,158,6.7,8.1,67,0.00,,,0.00,WUHU216HW,2013-09-17 04:26:00,
2013-09-16 23:31:00,53.6,42.9,30.17,SE,135,7.6,8.1,67,0.00,,,0.00,WUHU216HW,2013-09-17 04:31:00,
2013-09-16 23:36:00,53.6,43.3,30.17,SE,135,6.9,7.6,68,0.00,,,0.00,WUHU216HW,2013-09-17 04:36:00,
2013-09-16 23:41:00,53.3,43.4,30.17,SE,135,5.6,6.9,69,0.00,,,0.00,WUHU216HW,2013-09-17 04:41:00,
2013-09-16 23:46:00,53.1,43.2,30.17,SSE,158,6.3,6.9,69,0.00,,,0.00,WUHU216HW,2013-09-17 04:46:00,
2013-09-16 23:51:00,53.3,43.4,30.17,SE,135,8.5,8.5,69,0.00,,,0.00,WUHU216HW,2013-09-17 04:51:00,
2013-09-16 23:56:00,53.3,43.4,30.17,SE,135,8.3,8.5,69,0.00,,,0.00,WUHU216HW,2013-09-17 04:56:00,